Regional Weather Roundup
Issued by NWS Glasgow, MT

Home | Current Version | Previous Version | Text Only | Print | Product List | Glossary On
Versions: 1 2 3 4 5 6 7 8 9 10 11 12 13 14 15 16 17 18 19 20 21 22 23 24 25 26 27 28 29 30 31 32 33 34 35 36 37 38 39 40 41 42 43 44 45 46 47 48 49 50
000
ASUS45 KGGW 010415
RWRGGW
HOURLY REGIONAL WEATHER ROUNDUP FOR NORTHEAST MONTANA
NATIONAL WEATHER SERVICE GLASGOW MONTANA
1000 PM MDT SAT APR 30 2016

NOTE: "FAIR" INDICATES FEW OR NO CLOUDS BELOW 12,000 FEET WITH NO
SIGNIFICANT WEATHER AND/OR OBSTRUCTIONS TO VISISBILITY.

NORTHEAST MONTANA


CITY           SKY/WX    TMP DP  RH WIND       PRES   REMARKS
GLASGOW        CLEAR     47  31  53 E7        30.31R
PLENTYWOOD       N/A     48  24  39 E8          N/A
WOLF POINT     CLEAR     46  34  62 NE6       30.31R
JORDAN           N/A     45  36  70 CALM      30.30R
WINNETT          N/A     44  34  67 NW3         N/A
SIDNEY         CLEAR     43  30  61 NW5       30.31R
GLENDIVE       CLEAR     45  32  61 NE6       30.33R
SCOBEY           N/A     42  21  43 CALM      30.29
OPHEIM           N/A     48  23  37 CALM      30.20R

FORT PECK REPORTS


CITY           SKY/WX    TMP DP  RH WIND       PRES   REMARKS
FORT PECK        N/A     50  30  46 E8          N/A
THE PINES        N/A     52  30  43 E3          N/A

SOUTHEAST MONTANA


CITY           SKY/WX    TMP DP  RH WIND       PRES   REMARKS
BILLINGS       CLOUDY    48  35  60 N3        30.31R
MILES CITY     CLEAR     48  32  53 NE6       30.28R
BAKER          CLEAR     38  30  73 E5        30.30R
LIVINGSTON     CLOUDY    42  35  76 NE6       30.30R

CENTRAL MONTANA


CITY           SKY/WX    TMP DP  RH WIND       PRES   REMARKS
HAVRE          CLEAR     46  36  68 E3        30.32R
LEWISTOWN      CLOUDY    46  35  65 CALM      30.33R
GREAT FALLS    CLOUDY    42  33  70 E6        30.32R
CUT BANK       MOCLDY    46  36  68 CALM      30.33R
HELENA         CLOUDY    45  36  70 CALM      30.30R
BUTTE          CLOUDY    43  29  57 NE13      30.28R
BOZEMAN        CLOUDY    45  30  55 CALM      30.29R

WESTERN MONTANA


CITY           SKY/WX    TMP DP  RH WIND       PRES   REMARKS
MISSOULA       CLOUDY    50  43  77 SE7       30.28R
KALISPELL      NOT AVBL

NORTH DAKOTA


CITY           SKY/WX    TMP DP  RH WIND       PRES   REMARKS
WILLISTON      CLEAR     40  31  70 N6        30.30R
DICKINSON      CLEAR     43  26  51 NE6       30.27R
MINOT          CLEAR     46  26  45 N5        30.29R
BISMARCK       CLEAR     48  31  51 NE8       30.26R

SOUTHERN SASKATCHEWAN


CITY           SKY/WX    TMP DP  RH WIND       PRES   REMARKS
REGINA         PTCLDY    50  23  34 SE7       30.32S
ESTEVAN        NOT AVBL
SWIFT CURRENT  CLEAR     46  27  46 S7        30.30R




USA.gov is the U.S. government's official web portal to all federal, state and local government web resources and services.